| time (UTC) | temp F | wind direction | speed MPH | gust MPH | rain 1hr in | rain 24hr in | rain mn in | humidity % | barometer mb |
| 20260831021536 | 81 | 207 | 0.0 | 0.0 | 0.00 | 0.00 | 0.00 | 77 | 990.4 |
| 20260831015910 | 72 | 180 | 0.0 | 0.0 | 0.00 | 0.00 | 0.00 | 72 | 1011.3 |
| 20260831011035 | 82 | 278 | 0.0 | 0.0 | 0.00 | 0.00 | 0.00 | 77 | 990.4 |
| 20260831001000 | 82 | 150 | 0.0 | 0.0 | 0.00 | 0.00 | 0.00 | 82 | 990.6 |
| 20260830235900 | 75 | 180 | 0.0 | 0.0 | 0.00 | 0.00 | 0.00 | 68 | 1011.3 |
| 20260830222131 | 84 | 288 | 0.0 | 0.0 | 0.00 | 0.00 | 0.00 | 62 | 990.6 |
| 20260830215927 | 78 | 180 | 0.0 | 0.0 | 0.00 | 0.00 | 0.00 | 63 | 1010.7 |
| 20260830205910 | 81 | 180 | 0.0 | 0.0 | 0.00 | 0.00 | 0.00 | 62 | 1010.7 |
| 20260830201536 | 87 | 77 | 0.0 | 4.0 | 0.00 | 0.00 | 0.00 | 67 | 990.2 |
| 20260830191139 | 86 | 257 | 0.0 | 3.0 | 0.00 | 0.00 | 0.00 | 68 | 990.1 |
| 20260830185903 | 85 | 180 | 1.0 | 3.0 | 0.00 | 0.00 | 0.00 | 58 | 1010.3 |
| 20260830171724 | 91 | 67 | 0.0 | 3.0 | 0.00 | 0.00 | 0.00 | 43 | 989.4 |
| 20260830165910 | 91 | 219 | 3.0 | 12.0 | 0.00 | 0.00 | 0.00 | 54 | 1009.2 |
| 20260830161152 | 92 | 285 | 2.0 | 8.0 | 0.00 | 0.00 | 0.00 | 41 | 989.2 |
| 20260830145901 | 93 | 274 | 2.0 | 8.0 | 0.00 | 0.00 | 0.00 | 49 | 1009.0 |
| 20260830141721 | 94 | 51 | 1.0 | 7.0 | 0.00 | 0.00 | 0.00 | 48 | 989.7 |
| 20260830125912 | 96 | 242 | 3.0 | 5.0 | 0.00 | 0.00 | 0.00 | 45 | 1009.8 |
| 20260830121518 | 96 | 79 | 3.0 | 10.0 | 0.00 | 0.00 | 0.00 | 29 | 991.0 |
| 20260830105910 | 92 | 306 | 2.0 | 6.0 | 0.00 | 0.00 | 0.00 | 53 | 1010.5 |
| 20260830101131 | 98 | 24 | 1.0 | 6.0 | 0.00 | 0.00 | 0.00 | 24 | 991.3 |
| 20260830095900 | 89 | 12 | 5.0 | 11.0 | 0.00 | 0.00 | 0.00 | 58 | 1010.5 |
| 20260830081642 | 98 | 113 | 1.0 | 2.0 | 0.00 | 0.00 | 0.00 | 23 | 991.3 |
| 20260830075903 | 82 | 327 | 3.0 | 6.0 | 0.00 | 0.00 | 0.00 | 74 | 1011.0 |
| 20260830061613 | 86 | 290 | 0.0 | 0.0 | 0.00 | 0.00 | 0.00 | 43 | 991.1 |
| 20260830055856 | 72 | 246 | 0.0 | 0.0 | 0.00 | 0.00 | 0.00 | 77 | 1010.6 |
| 20260830051454 | 84 | 302 | 0.0 | 0.0 | 0.00 | 0.00 | 0.00 | 42 | 991.1 |
| 20260830035859 | 71 | 246 | 0.0 | 0.0 | 0.00 | 0.00 | 0.00 | 75 | 1010.6 |
| 20260830031528 | 87 | 268 | 0.0 | 0.0 | 0.00 | 0.00 | 0.00 | 35 | 990.8 |